sat.trackr.live / text

‹ back to catalog

STARLINK-35630

NORAD 66131 · 2025-237T

PAYLOAD ACTIVE UNKNOWN

§ Identity

Operator
Country
US
Launch date
2025-10-22
Launch site
AFWTR
Launch vehicle
Mass (kg)
RCS (m²)

Purposes: comms

External: N2YO · Heavens-Above · Gunter

§ Orbital elements

Epoch: 2026-05-25T03:07:15.690144Z

Period
94.11 min
Inclination
53.1594°
Eccentricity
0.0001435
Mean motion
15.30150734 rev/d
Perigee alt
474.4 km
Apogee alt
476.3 km
Semi-major
6,853.5 km
B*
1.0959e-3
RAAN
44.5809°
Arg perigee
90.3955°
Mean anomaly
269.7210°
Rev number
3,431

§ Raw data

STARLINK-356301 66131U 25237T   26145.13004271  .00032190  00000+0  10959-2 0  99922 66131  53.1594  44.5809 0001435  90.3955 269.7210 15.30150734 34317

JSON: /api/v1/satellites/66131 · /tle

For live sub-satellite position, see the globe view (requires WebGL).

§ Visibility from observer

Set your observer location to see the next 7 days of passes ≥ 10°. The values pass through the URL so the page stays shareable.

No JS? Fill the form by hand. The geolocation button needs JavaScript.